Regional Weather Roundup
Issued by NWS

Home | Current Version | Previous Version | Graphics & Text | Print | Product List | Glossary On
Versions: 1 2 3 4 5 6 7 8 9 10 11 12 13 14 15 16 17 18 19 20 21 22 23 24 25 26 27 28 29 30 31 32 33 34 35 36 37 38 39 40 41 42 43
000
ASUS45 KCYS 272110
RWRWY

WYOMING REGIONAL WEATHER ROUNDUP
NATIONAL WEATHER SERVICE CHEYENNE WY
200 PM MST SAT DEC 27 2014

NOTE:  "FAIR" INDICATES FEW OR NO CLOUDS BELOW 12,000 FEET
WITH NO SIGNIFICANT WEATHER AND/OR OBSTRUCTIONS TO VISIBILITY.

WYZ001-272200-
YELLOWSTONE NATIONAL PARK

CITY           SKY/WX    TMP DP  RH WIND       PRES   REMARKS
LK YELLOWSTONE   N/A     12   5  73 VRB3      30.04F
W YELLOWSTONE  NOT AVBL

$$
WYZ002>013-054>058-071-098>099-272200-
NORTHERN WYOMING

CITY           SKY/WX    TMP DP  RH WIND       PRES   REMARKS
JACKSON        CLOUDY    10   9  92 CALM      30.12F
CODY           FAIR      27   7  43 N12G24    29.97S WCI  16
GREYBULL       FAIR       9   5  84 W5        30.09S WCI   1
WORLAND        FAIR       6   2  83 CALM      30.05F
SHERIDAN       FAIR      18   8  65 SW5       30.00S WCI  11
BUFFALO        FAIR      25   6  44 CALM      29.97S
GILLETTE       PTSUNNY   24  11  57 W3        29.99S
HULETT           N/A    N/A N/A N/A MISG        N/A
NEWCASTLE      FAIR      23  10  58 W3        30.03F

$$
WYZ014>020-022>026-101>103-272200-
CENTRAL WYOMING

CITY           SKY/WX    TMP DP  RH WIND       PRES   REMARKS
BIG PINEY      FAIR       6  -1  73 W5        30.11S WCI  -3
PINEDALE       FAIR      14   5  67 NW9       30.09S WCI   2
DUBOIS         NOT AVBL
LANDER         FAIR      16   6  65 CALM      29.98F
RIVERTON       FAIR      12   5  73 SE3       30.00F
CASPER         FAIR      19   8  62 SW24      30.02F WCI   2
DOUGLAS        FAIR      25  10  53 W7        30.01F WCI  17

$$
WYZ021-027>030-104>119-272200-
SOUTHERN WYOMING

CITY           SKY/WX    TMP DP  RH WIND       PRES   REMARKS
EVANSTON       PTSUNNY   18   9  68 SW14      30.15F WCI   4
FORT BRIDGER   FAIR      21  10  62 W20G25    30.16S WCI   6
ROCK SPRINGS   CLOUDY    15   7  70 W16G26    30.11F WCI  -1
DIXON          FAIR      17   8  66 SW13      30.21F WCI   4
RAWLINS        FAIR      15   5  64 S21       30.08F WCI  -2
SARATOGA       FAIR      18   3  53 S8        30.11S WCI   7
LARAMIE        FAIR      16   5  62 SW24      29.97F WCI  -2
CHEYENNE       FAIR      20   5  52 SW13      30.01F WCI   7
TORRINGTON     FAIR      25  11  55 SW13      30.05F WCI  14
PINE BLUFFS    FAIR      21  10  63 W7        30.06F WCI  13

$$


USA.gov is the U.S. government's official web portal to all federal, state and local government web resources and services.